EW5239 Weather Reports


time (UTC)temp
C
wind
direction
speed
KPH
gust
KPH
rain 1hr
cm
rain 24hr
cm
rain mn
cm
humidity
%
barometer
mb
20260902162007 20 287 4.8 4.8 0.00 0.00 0.00 64 1016.7
20260902161953 20 270 4.8 4.8 0.00 0.00 0.00 64 1018.5
20260902161506 20 280 4.8 6.4 0.00 0.00 0.00 64 1016.8
20260902161454 20 271 4.8 6.4 0.00 0.00 0.00 63 1018.8
20260902160953 20 269 6.4 6.4 0.00 0.00 0.00 63 1018.7
20260902160506 20 283 6.4 6.4 0.00 0.00 0.00 63 1016.7
20260902160453 20 280 6.4 6.4 0.00 0.00 0.00 63 1018.7
20260902160009 20 282 6.4 6.4 0.00 0.00 0.00 63 1016.8
20260902160000 20 288 6.4 6.4 0.00 0.00 0.00 63 1018.7
20260902155506 20 268 6.4 6.4 0.00 0.00 0.00 63 1016.8
20260902155453 20 278 6.4 6.4 0.00 0.00 0.00 62 1018.8
20260902155007 20 285 6.4 8.0 0.00 0.00 0.00 62 1016.7
20260902154953 20 289 6.4 9.7 0.00 0.00 0.00 61 1018.8
20260902154506 20 271 8.0 8.0 0.00 0.00 0.00 61 1016.8
20260902154453 20 300 6.4 9.7 0.00 0.00 0.00 60 1018.7
20260902154006 20 249 8.0 9.7 0.00 0.00 0.00 60 1016.7
20260902153953 20 289 8.0 11.3 0.00 0.00 0.00 59 1018.7
20260902153506 20 265 9.7 14.5 0.00 0.00 0.00 59 1016.8
20260902153453 20 289 11.3 14.5 0.00 0.00 0.00 58 1018.7
20260902153006 21 271 9.7 14.5 0.00 0.00 0.00 57 1016.8
20260902152953 21 278 11.3 14.5 0.00 0.00 0.00 58 1018.7
20260902152506 21 275 9.7 12.9 0.00 0.00 0.00 58 1017.0
20260902151953 21 280 12.9 19.3 0.00 0.00 0.00 56 1019.0
20260902151506 21 285 11.3 17.7 0.00 0.00 0.00 57 1017.0
20260902151453 21 290 11.3 19.3 0.00 0.00 0.00 56 1019.0
20260902151006 21 269 9.7 12.9 0.00 0.00 0.00 57 1016.9
20260902150953 21 294 11.3 14.5 0.00 0.00 0.00 56 1019.0
20260902150506 21 271 11.3 17.7 0.00 0.00 0.00 57 1016.9
20260902150454 21 284 12.9 17.7 0.00 0.00 0.00 56 1018.9
20260902150006 21 292 12.9 17.7 0.00 0.00 0.00 56 1016.8
20260902145959 21 283 12.9 17.7 0.00 0.00 0.00 55 1019.0
20260902145506 21 292 12.9 16.1 0.00 0.00 0.00 55 1016.9
20260902145453 21 284 12.9 17.7 0.00 0.00 0.00 54 1019.0
20260902145006 21 282 11.3 14.5 0.00 0.00 0.00 55 1016.9
20260902144953 21 271 11.3 16.1 0.00 0.00 0.00 54 1019.1
20260902144007 21 285 11.3 16.1 0.00 0.00 0.00 56 1016.9
20260902143954 21 281 12.9 17.7 0.00 0.00 0.00 54 1018.7
20260902143506 21 283 9.7 14.5 0.00 0.00 0.00 56 1016.8
20260902143453 21 287 11.3 16.1 0.00 0.00 0.00 54 1018.8
20260902143006 21 264 9.7 12.9 0.00 0.00 0.00 56 1016.8
20260902142954 21 304 11.3 14.5 0.00 0.00 0.00 54 1018.8
20260902142506 21 255 9.7 12.9 0.00 0.00 0.00 56 1016.8
20260902142453 21 280 11.3 14.5 0.00 0.00 0.00 55 1019.0
20260902142007 21 255 9.7 11.3 0.00 0.00 0.00 58 1016.7
20260902141953 21 267 9.7 11.3 0.00 0.00 0.00 57 1019.0
20260902141453 21 264 9.7 11.3 0.00 0.00 0.00 56 1019.0
20260902141006 21 266 8.0 12.9 0.00 0.00 0.00 57 1016.8
20260902140953 21 269 8.0 12.9 0.00 0.00 0.00 55 1018.9
20260902140006 21 282 11.3 14.5 0.00 0.00 0.00 56 1017.0
20260902135959 21 298 12.9 16.1 0.00 0.00 0.00 55 1018.9
20260902135506 21 287 12.9 17.7 0.00 0.00 0.00 56 1017.1
20260902135453 21 311 14.5 20.9 0.00 0.00 0.00 54 1019.1
20260902135006 21 290 16.1 20.9 0.00 0.00 0.00 58 1017.2
20260902134953 21 318 17.7 20.9 0.00 0.00 0.00 56 1019.0
20260902134506 21 291 14.5 20.9 0.00 0.00 0.00 58 1017.1
20260902134453 21 305 16.1 20.9 0.00 0.00 0.00 57 1019.2
20260902134006 21 277 11.3 17.7 0.00 0.00 0.00 59 1017.4
20260902133506 21 274 12.9 20.9 0.00 0.00 0.00 60 1017.2
20260902133007 21 306 14.5 20.9 0.00 0.00 0.00 59 1017.2
20260902132953 21 292 14.5 20.9 0.00 0.00 0.00 58 1019.3
20260902132506 21 311 12.9 17.7 0.00 0.00 0.00 59 1017.2
20260902132006 21 284 12.9 20.9 0.00 0.00 0.00 59 1017.2
20260902131953 21 297 14.5 22.5 0.00 0.00 0.00 58 1019.3
20260902131506 21 259 14.5 22.5 0.00 0.00 0.00 58 1017.4
20260902131453 21 321 16.1 22.5 0.00 0.00 0.00 57 1019.4
20260902130506 21 279 19.3 25.7 0.00 0.00 0.00 58 1017.4
20260902130453 21 301 19.3 25.7 0.00 0.00 0.00 56 1019.3
20260902130006 21 290 17.7 22.5 0.00 0.00 0.00 58 1017.4
20260902130002 21 305 17.7 24.1 0.00 0.00 0.00 57 1019.3
20260902125506 21 300 17.7 22.5 0.00 0.00 0.00 58 1017.3
20260902125007 21 268 14.5 17.7 0.00 0.00 0.00 61 1017.4
20260902124953 21 265 14.5 17.7 0.00 0.00 0.00 59 1019.1
20260902124506 21 269 14.5 19.3 0.00 0.00 0.00 60 1017.4
20260902124453 21 265 14.5 19.3 0.00 0.00 0.00 59 1019.0
20260902123953 21 270 14.5 24.1 0.00 0.00 0.00 59 1019.3
20260902123506 21 276 14.5 22.5 0.00 0.00 0.00 63 1017.5
20260902123453 21 272 14.5 24.1 0.00 0.00 0.00 62 1019.2
20260902123006 21 282 14.5 19.3 0.00 0.00 0.00 62 1017.6
20260902122954 21 268 14.5 22.5 0.00 0.00 0.00 62 1019.3
20260902122506 21 299 14.5 19.3 0.00 0.00 0.00 63 1017.6
20260902122453 21 291 14.5 22.5 0.00 0.00 0.00 61 1019.5
20260902122006 21 304 14.5 17.7 0.00 0.00 0.00 63 1017.7
20260902121953 21 308 14.5 17.7 0.00 0.00 0.00 63 1019.6
20260902121507 21 297 14.5 19.3 0.00 0.00 0.00 64 1017.9
20260902121006 21 274 14.5 19.3 0.00 0.00 0.00 64 1017.8
20260902120954 20 255 14.5 17.7 0.00 0.00 0.00 63 1019.4
20260902120506 20 275 12.9 16.1 0.00 0.00 0.00 65 1017.9
20260902120453 20 271 14.5 19.3 0.00 0.00 0.00 64 1019.7
20260902120006 20 290 11.3 16.1 0.00 0.00 0.00 65 1017.9
20260902120000 20 289 11.3 19.3 0.00 0.00 0.00 64 1019.7
20260902115455 20 262 9.7 16.1 0.00 0.00 0.00 63 1019.5
20260902115006 21 271 11.3 17.7 0.00 0.00 0.00 62 1017.9
20260902114953 21 265 11.3 17.7 0.00 0.00 0.00 60 1019.6
20260902114506 21 275 12.9 17.7 0.00 0.00 0.00 62 1017.8
20260902114453 21 282 12.9 17.7 0.00 0.00 0.00 60 1019.6
20260902114006 21 288 12.9 17.7 0.00 0.00 0.00 62 1017.7
20260902113953 21 302 12.9 17.7 0.00 0.00 0.00 61 1019.6
20260902113506 21 295 12.9 17.7 0.00 0.00 0.00 63 1017.8
20260902113453 21 314 12.9 17.7 0.00 0.00 0.00 62 1019.7
20260902113006 21 266 12.9 17.7 0.00 0.00 0.00 63 1017.7
20260902112954 21 293 12.9 17.7 0.00 0.00 0.00 62 1019.5
20260902112453 21 294 12.9 17.7 0.00 0.00 0.00 62 1019.7
20260902111953 21 298 9.7 14.5 0.00 0.00 0.00 59 1019.8
20260902111506 21 271 11.3 17.7 0.00 0.00 0.00 64 1017.9
20260902111454 21 282 11.3 17.7 0.00 0.00 0.00 62 1020.0
20260902111006 20 280 16.1 24.1 0.00 0.00 0.00 66 1017.9
20260902110953 20 282 16.1 24.1 0.00 0.00 0.00 65 1019.7
20260902110506 20 270 17.7 24.1 0.00 0.00 0.00 64 1018.1
20260902110008 20 276 16.1 20.9 0.00 0.00 0.00 64 1018.1
20260902105959 20 275 16.1 24.1 0.00 0.00 0.00 63 1019.7
20260902105506 20 281 12.9 20.9 0.00 0.00 0.00 65 1017.9
20260902105454 20 282 14.5 20.9 0.00 0.00 0.00 63 1019.8
20260902104953 20 277 12.9 17.7 0.00 0.00 0.00 65 1020.0
20260902104506 20 258 12.9 16.1 0.00 0.00 0.00 66 1018.1
20260902104006 20 262 11.3 16.1 0.00 0.00 0.00 68 1018.1
20260902103953 20 283 12.9 17.7 0.00 0.00 0.00 66 1019.7
20260902103506 20 258 12.9 17.7 0.00 0.00 0.00 67 1018.1
20260902103007 20 260 11.3 17.7 0.00 0.00 0.00 68 1018.0
20260902102506 20 270 11.3 14.5 0.00 0.00 0.00 68 1018.2
20260902102453 19 277 12.9 16.1 0.00 0.00 0.00 67 1020.1
20260902102006 20 280 14.5 19.3 0.00 0.00 0.00 68 1018.4
20260902101953 20 266 14.5 20.9 0.00 0.00 0.00 67 1019.8
20260902101506 20 287 12.9 19.3 0.00 0.00 0.00 69 1018.3
20260902101454 20 251 14.5 20.9 0.00 0.00 0.00 67 1020.0
20260902101005 20 303 9.7 12.9 0.00 0.00 0.00 71 1018.2
20260902100954 20 258 12.9 14.5 0.00 0.00 0.00 69 1020.0
20260902100506 20 297 9.7 12.9 0.00 0.00 0.00 70 1018.1
20260902100453 19 284 11.3 14.5 0.00 0.00 0.00 69 1019.8
20260902100006 20 287 11.3 14.5 0.00 0.00 0.00 70 1018.3
20260902100000 20 294 11.3 16.1 0.00 0.00 0.00 69 1020.1
20260902095506 20 305 9.7 14.5 0.00 0.00 0.00 69 1018.3
20260902095453 20 299 9.7 16.1 0.00 0.00 0.00 67 1020.1
20260902095005 20 320 9.7 12.9 0.00 0.00 0.00 70 1018.2
20260902094954 20 291 9.7 14.5 0.00 0.00 0.00 67 1020.0
20260902094506 20 297 11.3 19.3 0.00 0.00 0.00 71 1018.3
20260902094454 20 275 12.9 19.3 0.00 0.00 0.00 67 1019.9
20260902094006 20 284 14.5 19.3 0.00 0.00 0.00 73 1018.2
20260902093953 20 271 12.9 19.3 0.00 0.00 0.00 69 1020.1
20260902093506 20 277 11.3 19.3 0.00 0.00 0.00 73 1018.2
20260902093453 20 275 11.3 17.7 0.00 0.00 0.00 71 1020.0
20260902093006 20 274 11.3 16.1 0.00 0.00 0.00 74 1018.3
20260902092954 20 295 11.3 17.7 0.00 0.00 0.00 70 1019.9
20260902092506 19 272 11.3 16.1 0.00 0.00 0.00 74 1018.3
20260902092454 20 295 11.3 17.7 0.00 0.00 0.00 70 1020.2
20260902092006 19 254 12.9 20.9 0.00 0.00 0.00 74 1018.4
20260902091506 19 263 14.5 20.9 0.00 0.03 0.00 74 1018.3
20260902091453 19 253 14.5 20.9 0.00 0.00 0.00 71 1020.0
20260902091006 19 273 11.3 17.7 0.00 0.03 0.00 75 1018.4
20260902090953 19 285 11.3 17.7 0.00 0.00 0.00 72 1020.0
20260902090506 19 265 11.3 17.7 0.00 0.03 0.00 75 1018.3
20260902090453 19 298 11.3 16.1 0.00 0.00 0.00 74 1020.1
20260902090006 19 263 11.3 17.7 0.00 0.03 0.00 76 1018.4
20260902085959 19 270 11.3 17.7 0.00 0.00 0.00 74 1020.2
20260902085506 18 277 11.3 17.7 0.00 0.03 0.00 77 1018.5
20260902085454 19 246 11.3 17.7 0.00 0.00 0.00 74 1020.1
20260902084954 19 251 12.9 17.7 0.00 0.00 0.00 74 1020.0
20260902084506 18 259 11.3 16.1 0.00 0.03 0.00 78 1018.2
20260902084454 18 277 12.9 17.7 0.00 0.00 0.00 75 1020.1
20260902084006 18 238 9.7 16.1 0.00 0.03 0.00 77 1018.3
20260902083506 18 228 8.0 12.9 0.00 0.03 0.00 77 1018.4
20260902083453 18 261 8.0 14.5 0.00 0.00 0.00 73 1020.0
20260902083006 18 246 8.0 12.9 0.00 0.03 0.00 78 1018.2
20260902082953 19 265 8.0 14.5 0.00 0.00 0.00 74 1020.1
20260902082506 18 257 8.0 12.9 0.00 0.03 0.00 78 1018.2
20260902082454 18 256 8.0 12.9 0.00 0.00 0.00 75 1019.9
20260902082006 18 270 8.0 12.9 0.00 0.03 0.00 79 1018.2
20260902081953 18 258 8.0 12.9 0.00 0.00 0.00 76 1019.9
20260902081506 18 273 9.7 14.5 0.00 0.03 0.00 79 1018.2
20260902080953 18 273 9.7 14.5 0.00 0.00 0.00 77 1019.8
20260902080506 18 266 9.7 12.9 0.00 0.03 0.00 79 1018.0
20260902080454 18 297 11.3 14.5 0.00 0.00 0.00 77 1019.8
20260902080006 18 291 12.9 16.1 0.00 0.03 0.00 79 1018.1
20260902075959 18 296 12.9 16.1 0.00 0.00 0.00 77 1019.7
20260902075454 18 270 9.7 16.1 0.00 0.00 0.00 78 1020.0
20260902074953 18 258 6.4 12.9 0.00 0.00 0.00 78 1020.1
20260902074506 17 249 8.0 12.9 0.00 0.03 0.00 81 1017.9
20260902074454 18 265 8.0 12.9 0.00 0.00 0.00 79 1019.8
20260902074006 17 250 6.4 12.9 0.00 0.03 0.00 82 1018.1
20260902073505 17 282 8.0 12.9 0.00 0.03 0.00 82 1018.1
20260902073454 17 283 8.0 12.9 0.00 0.00 0.00 82 1020.0
20260902073006 17 290 9.7 14.5 0.00 0.03 0.00 82 1018.0
20260902072953 17 298 9.7 16.1 0.00 0.00 0.00 81 1019.9
20260902072506 17 296 9.7 14.5 0.00 0.03 0.00 82 1018.0
20260902072454 17 318 9.7 16.1 0.00 0.00 0.00 82 1019.7
20260902072006 17 284 9.7 12.9 0.00 0.03 0.00 83 1018.0
20260902071954 17 306 9.7 12.9 0.00 0.00 0.00 82 1019.8
20260902071506 17 257 9.7 12.9 0.00 0.03 0.00 83 1018.0
20260902071453 17 281 9.7 12.9 0.00 0.00 0.00 83 1019.8
20260902070954 17 270 9.7 11.3 0.00 0.00 0.00 84 1019.6
20260902070506 16 283 9.7 12.9 0.00 0.03 0.00 85 1017.9
20260902070007 16 264 9.7 12.9 0.00 0.03 0.00 85 1017.8
20260902065959 16 273 9.7 12.9 0.00 0.00 0.00 85 1019.7
20260902065506 16 252 9.7 12.9 0.00 0.03 0.00 86 1017.7
20260902065454 16 281 9.7 12.9 0.00 0.00 0.00 86 1019.5
20260902065006 16 275 9.7 12.9 0.00 0.03 0.00 86 1017.6
20260902064953 16 312 9.7 12.9 0.00 0.00 0.00 86 1019.6
20260902064506 16 287 9.7 12.9 0.00 0.03 0.00 86 1017.7
20260902064454 16 301 9.7 12.9 0.00 0.00 0.00 87 1019.7
20260902064005 16 271 8.0 12.9 0.00 0.03 0.00 88 1017.7
20260902063953 16 267 8.0 11.3 0.00 0.00 0.00 88 1019.5
20260902063506 15 266 8.0 9.7 0.00 0.03 0.00 88 1017.5
20260902063453 15 260 8.0 12.9 0.00 0.00 0.00 88 1019.6
20260902062506 15 267 8.0 12.9 0.00 0.03 0.00 88 1017.6
20260902062453 15 267 6.4 12.9 0.00 0.00 0.00 88 1019.5
20260902062005 15 261 8.0 11.3 0.00 0.03 0.00 88 1017.4
20260902061953 15 275 8.0 11.3 0.00 0.00 0.00 88 1019.5
20260902061506 15 258 9.7 11.3 0.00 0.03 0.00 88 1017.6
20260902060506 15 266 11.3 12.9 0.00 0.03 0.00 90 1017.6
20260902060454 15 264 11.3 14.5 0.00 0.00 0.00 90 1019.4
20260902060005 15 264 11.3 17.7 0.00 0.03 0.00 90 1017.7
20260902055959 15 265 12.9 17.7 0.00 0.00 0.00 91 1019.3
20260902055506 15 263 11.3 17.7 0.00 0.03 0.00 91 1017.4
20260902055454 15 270 11.3 17.7 0.00 0.00 0.00 93 1019.3
20260902055006 15 262 8.0 12.9 0.00 0.03 0.00 92 1017.4
20260902054506 15 252 6.4 9.7 0.00 0.03 0.00 93 1017.3
20260902054454 14 252 6.4 9.7 0.00 0.00 0.00 95 1019.3
20260902054006 14 254 4.8 6.4 0.00 0.03 0.00 94 1017.3
20260902053953 13 246 4.8 6.4 0.00 0.00 0.00 96 1019.0
20260902053506 13 276 4.8 6.4 0.00 0.03 0.00 94 1017.2
20260902053454 13 251 4.8 6.4 0.00 0.00 0.00 97 1019.3
20260902053006 13 264 6.4 11.3 0.00 0.03 0.00 95 1017.1
20260902052953 13 249 6.4 9.7 0.00 0.00 0.00 97 1019.1
20260902052454 13 261 6.4 9.7 0.00 0.00 0.00 97 1019.1
20260902052006 13 244 4.8 6.4 0.00 0.03 0.00 95 1017.2
20260902051954 13 269 4.8 6.4 0.00 0.00 0.00 97 1019.1
20260902051506 13 258 4.8 6.4 0.00 0.03 0.00 95 1017.1
20260902051454 12 261 4.8 6.4 0.00 0.00 0.00 97 1019.1
20260902051006 13 254 4.8 6.4 0.00 0.03 0.00 95 1017.2
20260902050953 12 254 4.8 6.4 0.00 0.00 0.00 97 1019.1
20260902050506 13 246 4.8 6.4 0.00 0.03 0.00 95 1017.0
20260902050453 12 240 4.8 6.4 0.00 0.00 0.00 97 1019.2
20260902050008 12 245 3.2 4.8 0.00 0.03 0.00 94 1016.9
20260902045505 12 241 3.2 4.8 0.00 0.03 0.00 94 1016.9
20260902045454 12 236 3.2 4.8 0.00 0.00 0.00 97 1019.0
20260902045006 12 234 3.2 3.2 0.00 0.03 0.00 94 1017.0
20260902044954 12 236 3.2 3.2 0.00 0.00 0.00 97 1019.0
20260902044006 12 251 1.6 4.8 0.00 0.03 0.00 94 1016.9
20260902043954 12 244 1.6 4.8 0.00 0.00 0.00 97 1019.1
20260902043506 12 243 3.2 4.8 0.00 0.03 0.00 94 1016.8
20260902043454 12 250 3.2 4.8 0.00 0.00 0.00 97 1018.8
20260902043006 12 264 4.8 4.8 0.00 0.03 0.00 94 1016.8
20260902042953 12 268 3.2 4.8 0.00 0.00 0.00 97 1018.9
20260902042506 12 266 4.8 6.4 0.00 0.03 0.00 95 1016.9
20260902042005 12 239 3.2 6.4 0.00 0.03 0.00 95 1016.8
20260902041954 12 220 3.2 4.8 0.00 0.00 0.00 97 1018.9
20260902041506 12 234 3.2 3.2 0.00 0.03 0.00 95 1016.7
20260902041453 12 205 3.2 3.2 0.00 0.00 0.00 97 1018.8
20260902041006 12 231 3.2 3.2 0.00 0.03 0.00 94 1016.7
20260902040953 12 217 3.2 4.8 0.00 0.00 0.00 97 1018.6
20260902040454 12 225 3.2 4.8 0.00 0.00 0.00 97 1018.7
20260902040005 12 237 3.2 4.8 0.00 0.03 0.00 94 1016.7
20260902035959 12 217 3.2 4.8 0.00 0.00 0.00 97 1018.8
20260902035454 12 210 3.2 6.4 0.00 0.00 0.00 97 1018.6
20260902035006 12 225 4.8 6.4 0.00 0.03 0.00 94 1016.8
20260902034953 12 227 4.8 6.4 0.00 0.00 0.00 97 1018.6
20260902034506 12 226 4.8 6.4 0.00 0.03 0.00 94 1016.8
20260902034453 12 228 4.8 6.4 0.00 0.00 0.00 97 1018.8
20260902034005 12 234 4.8 6.4 0.00 0.03 0.00 94 1016.7
20260902033506 12 243 4.8 6.4 0.00 0.03 0.00 94 1016.7
20260902033454 12 214 4.8 6.4 0.00 0.00 0.00 96 1019.0
20260902032953 12 226 4.8 6.4 0.00 0.00 0.00 96 1019.1
20260902032506 12 221 3.2 6.4 0.00 0.03 0.00 93 1016.8
20260902032454 12 230 3.2 6.4 0.00 0.00 0.00 96 1019.0
20260902032005 12 215 3.2 3.2 0.00 0.03 0.00 93 1016.8
20260902031954 12 211 3.2 3.2 0.00 0.00 0.00 96 1018.7
20260902031506 12 211 1.6 3.2 0.00 0.03 0.00 93 1016.7
20260902031453 12 192 1.6 3.2 0.00 0.00 0.00 96 1018.9
20260902031006 12 259 0.0 3.2 0.00 0.03 0.00 93 1016.8
20260902030953 12 214 1.6 3.2 0.00 0.00 0.00 96 1019.0
20260902030454 12 254 3.2 3.2 0.00 0.00 0.00 96 1018.9
20260902030006 12 280 3.2 4.8 0.00 0.03 0.00 93 1017.0
20260902025959 12 254 3.2 4.8 0.00 0.00 0.00 96 1019.2
20260902025506 12 257 4.8 6.4 0.00 0.03 0.00 93 1017.0
20260902025453 12 223 3.2 6.4 0.00 0.00 0.00 96 1019.0
20260902025006 12 237 4.8 6.4 0.00 0.03 0.00 93 1016.9
20260902024953 12 218 3.2 6.4 0.00 0.00 0.00 95 1019.0
20260902024505 12 222 3.2 4.8 0.00 0.03 0.00 93 1016.8
20260902024454 12 220 3.2 3.2 0.00 0.00 0.00 95 1018.9
20260902023953 12 236 3.2 6.4 0.00 0.00 0.00 95 1018.7
20260902023506 12 247 3.2 6.4 0.00 0.03 0.00 93 1016.9
20260902023006 12 225 3.2 6.4 0.00 0.03 0.00 93 1016.9
20260902022954 12 229 3.2 6.4 0.00 0.00 0.00 95 1018.8
20260902022454 12 228 3.2 6.4 0.00 0.00 0.00 94 1019.0
20260902022006 12 245 0.0 3.2 0.00 0.03 0.00 92 1017.0
20260902021953 12 219 3.2 6.4 0.00 0.00 0.00 94 1018.9
20260902021454 12 232 3.2 6.4 0.00 0.00 0.00 94 1019.0
20260902021006 12 0 0.0 0.0 0.00 0.03 0.00 92 1016.9
20260902020954 12 239 3.2 4.8 0.00 0.00 0.00 93 1019.1
20260902020505 12 237 0.0 3.2 0.00 0.03 0.00 92 1017.0
20260902020454 12 230 3.2 3.2 0.00 0.00 0.00 93 1019.0
20260902020006 12 225 1.6 3.2 0.00 0.03 0.00 92 1017.1
20260902015959 12 232 3.2 4.8 0.00 0.00 0.00 93 1019.0
20260902015006 12 225 0.0 3.2 0.00 0.03 0.00 91 1017.0
20260902014954 12 238 3.2 4.8 0.00 0.00 0.00 93 1019.0
20260902014505 12 225 0.0 3.2 0.00 0.03 0.00 91 1017.0
20260902014454 12 189 1.6 3.2 0.00 0.00 0.00 93 1019.0
20260902014006 12 0 0.0 0.0 0.00 0.03 0.00 91 1017.0
20260902013953 12 184 1.6 3.2 0.00 0.00 0.00 93 1019.0
20260902013506 12 225 0.0 1.6 0.00 0.03 0.00 91 1017.0
20260902013005 12 225 0.0 1.6 0.00 0.03 0.00 91 1017.0
20260902012506 12 0 0.0 0.0 0.00 0.03 0.00 91 1016.9
20260902011953 12 225 3.2 3.2 0.00 0.00 0.00 92 1019.0
20260902011454 12 224 3.2 3.2 0.00 0.00 0.00 92 1018.9
20260902010954 12 221 3.2 3.2 0.00 0.00 0.00 92 1019.1
20260902010506 12 0 0.0 0.0 0.00 0.03 0.00 90 1016.9
20260902010453 12 218 1.6 3.2 0.00 0.00 0.00 92 1019.2
20260902005453 12 216 3.2 4.8 0.00 0.00 0.00 92 1018.8
20260902005006 13 237 0.0 4.8 0.00 0.03 0.00 89 1016.8
20260902004505 13 242 1.6 4.8 0.00 0.03 0.00 89 1016.9
20260902004454 12 216 3.2 6.4 0.00 0.00 0.00 92 1018.8
20260902004006 13 229 1.6 4.8 0.00 0.03 0.00 89 1016.9
20260902002506 13 234 1.6 4.8 0.00 0.03 0.00 89 1016.7
20260902002453 13 223 3.2 4.8 0.00 0.00 0.00 91 1018.9
20260902002006 13 237 1.6 3.2 0.00 0.03 0.00 89 1016.7
20260902001953 13 200 3.2 3.2 0.00 0.00 0.00 90 1018.8
20260902001506 13 231 0.0 3.2 0.00 0.03 0.00 89 1016.6
20260902001454 13 201 3.2 4.8 0.00 0.00 0.00 90 1018.9
20260902001005 13 225 3.2 4.8 0.00 0.03 0.00 89 1016.7
20260902000506 13 225 3.2 6.4 0.00 0.03 0.00 88 1016.7
20260902000454 12 229 4.8 6.4 0.00 0.00 0.00 89 1018.8
20260902000006 13 225 1.6 6.4 0.00 0.03 0.00 88 1016.9
20260901235959 12 262 3.2 6.4 0.00 0.00 0.00 89 1018.8
20260901235506 13 225 0.0 3.2 0.00 0.03 0.00 88 1016.7
20260901235454 13 232 1.6 3.2 0.00 0.00 0.00 89 1018.9
20260901235005 13 225 0.0 3.2 0.00 0.03 0.00 88 1016.8
20260901234953 13 225 1.6 3.2 0.00 0.00 0.00 89 1018.6
20260901234454 13 225 1.6 3.2 0.00 0.00 0.00 89 1018.9
20260901234006 13 0 0.0 0.0 0.00 0.03 0.00 88 1016.7
20260901233953 13 228 1.6 3.2 0.00 0.00 0.00 89 1018.8
20260901233505 13 225 0.0 3.2 0.00 0.03 0.00 88 1016.7
20260901233453 13 221 3.2 3.2 0.00 0.00 0.00 88 1018.8
20260901233006 13 225 0.0 3.2 0.00 0.03 0.00 88 1016.7
20260901232954 13 214 1.6 3.2 0.00 0.00 0.00 88 1018.6
20260901232506 13 0 0.0 0.0 0.00 0.03 0.00 87 1016.7
20260901232453 13 218 1.6 3.2 0.00 0.00 0.00 88 1018.7
20260901232006 13 0 0.0 0.0 0.00 0.03 0.00 87 1016.6
20260901231954 13 225 1.6 3.2 0.00 0.00 0.00 88 1018.4
20260901231506 13 0 0.0 0.0 0.00 0.03 0.00 87 1016.7
20260901231454 13 225 1.6 3.2 0.00 0.00 0.00 87 1018.7
20260901231005 13 0 0.0 0.0 0.00 0.03 0.00 87 1016.7
20260901230454 13 208 1.6 3.2 0.00 0.00 0.00 87 1018.8
20260901230006 13 0 0.0 0.0 0.00 0.03 0.00 86 1016.7
20260901230000 13 182 1.6 3.2 0.00 0.00 0.00 86 1018.5
20260901225506 13 0 0.0 0.0 0.00 0.03 0.00 86 1016.7
20260901225453 13 181 1.6 3.2 0.00 0.00 0.00 86 1018.6
20260901225006 13 0 0.0 0.0 0.00 0.03 0.00 85 1016.6
20260901224954 13 181 0.0 1.6 0.00 0.00 0.00 85 1018.6
20260901224506 13 0 0.0 0.0 0.00 0.03 0.00 85 1016.6
20260901224453 14 171 0.0 3.2 0.00 0.00 0.00 85 1018.6
20260901224006 14 0 0.0 0.0 0.00 0.03 0.00 85 1016.6
20260901223505 14 0 0.0 0.0 0.00 0.03 0.00 85 1016.7
20260901223454 14 193 1.6 3.2 0.00 0.00 0.00 85 1018.7
20260901223006 14 0 0.0 0.0 0.00 0.03 0.00 84 1016.6
20260901222506 14 0 0.0 0.0 0.00 0.03 0.00 84 1016.7
20260901222454 14 199 1.6 3.2 0.00 0.00 0.00 84 1018.6
20260901222005 14 0 0.0 0.0 0.00 0.03 0.00 84 1016.8
20260901221953 14 208 1.6 3.2 0.00 0.00 0.00 84 1018.7
20260901221506 14 0 0.0 0.0 0.00 0.03 0.00 84 1016.7
20260901221454 15 237 1.6 3.2 0.00 0.00 0.00 84 1018.6
20260901221006 15 0 0.0 0.0 0.00 0.03 0.00 84 1016.5
20260901220954 15 235 3.2 3.2 0.00 0.00 0.00 84 1018.8
20260901220506 15 270 1.6 6.4 0.00 0.03 0.00 83 1016.7
20260901220453 15 244 3.2 6.4 0.00 0.00 0.00 83 1018.6
20260901220007 15 267 1.6 6.4 0.00 0.03 0.00 83 1016.6
20260901220001 15 237 3.2 6.4 0.00 0.00 0.00 83 1018.5
20260901215506 15 260 3.2 6.4 0.00 0.03 0.03 83 1016.6
20260901215454 15 243 4.8 6.4 0.00 0.00 0.00 82 1018.6
20260901215006 15 279 6.4 9.7 0.00 0.03 0.03 83 1016.7
20260901214954 15 252 6.4 9.7 0.00 0.00 0.00 82 1018.6
20260901214506 15 282 6.4 9.7 0.00 0.03 0.03 83 1016.7
20260901214453 15 262 8.0 9.7 0.00 0.00 0.00 82 1018.7
20260901214006 15 264 8.0 8.0 0.00 0.03 0.03 83 1016.7
20260901213954 15 265 8.0 9.7 0.00 0.00 0.00 83 1018.9
20260901213506 15 255 8.0 9.7 0.00 0.03 0.03 83 1016.7
20260901213453 15 249 8.0 9.7 0.00 0.00 0.00 83 1018.7
20260901213006 15 245 6.4 9.7 0.00 0.03 0.03 83 1016.7
20260901212954 15 247 8.0 9.7 0.00 0.00 0.00 83 1018.7
20260901212506 15 243 6.4 8.0 0.00 0.03 0.03 83 1016.7
20260901212006 15 240 4.8 8.0 0.00 0.03 0.03 83 1016.6
20260901211954 15 240 6.4 9.7 0.00 0.00 0.00 83 1018.8
20260901211506 15 230 1.6 6.4 0.00 0.03 0.03 83 1016.8
20260901211454 15 245 4.8 6.4 0.00 0.00 0.00 83 1018.8
20260901211006 15 264 0.0 6.4 0.00 0.03 0.03 83 1016.8
20260901210953 15 233 4.8 6.4 0.00 0.00 0.00 83 1018.8
20260901210505 15 226 1.6 6.4 0.00 0.03 0.03 83 1016.7
20260901210453 15 212 4.8 6.4 0.00 0.00 0.00 84 1018.5
20260901210006 15 221 1.6 6.4 0.00 0.03 0.03 83 1016.8
20260901205453 15 233 4.8 6.4 0.00 0.00 0.00 84 1018.7
20260901205005 15 218 3.2 8.0 0.00 0.03 0.03 83 1016.7
20260901204953 15 231 4.8 8.0 0.00 0.00 0.00 84 1018.7
20260901204506 15 216 3.2 8.0 0.00 0.03 0.03 83 1016.7
20260901204454 15 220 4.8 8.0 0.00 0.00 0.00 83 1018.7
20260901203954 15 200 3.2 6.4 0.00 0.00 0.00 83 1018.5
20260901203505 15 0 0.0 0.0 0.00 0.03 0.03 83 1016.7
20260901203453 15 217 3.2 3.2 0.00 0.00 0.00 83 1018.6
20260901203005 16 0 0.0 0.0 0.00 0.03 0.03 83 1016.5
20260901202954 15 223 3.2 4.8 0.00 0.00 0.00 83 1018.8
20260901202506 16 225 0.0 3.2 0.00 0.03 0.03 82 1016.5
20260901201953 16 224 3.2 4.8 0.00 0.00 0.00 82 1018.6
20260901201455 16 225 3.2 4.8 0.00 0.00 0.00 82 1018.5
20260901200954 16 225 3.2 4.8 0.00 0.00 0.00 82 1018.5
20260901200454 16 226 3.2 4.8 0.00 0.00 0.00 82 1018.6
20260901200005 16 0 0.0 0.0 0.00 0.03 0.03 82 1016.7
20260901195505 16 0 0.0 0.0 0.00 0.03 0.03 82 1016.8
20260901195453 16 237 4.8 6.4 0.00 0.00 0.00 82 1018.8
20260901195005 16 0 0.0 0.0 0.00 0.03 0.03 82 1016.8
20260901194953 16 232 4.8 6.4 0.00 0.00 0.00 82 1018.7
20260901194506 16 0 0.0 0.0 0.00 0.03 0.03 82 1016.7
20260901194455 16 222 4.8 6.4 0.00 0.00 0.00 82 1018.6
20260901194006 16 225 0.0 1.6 0.00 0.03 0.03 82 1016.8
20260901193954 16 219 4.8 6.4 0.00 0.00 0.00 82 1018.6
20260901193453 16 225 4.8 4.8 0.00 0.00 0.00 82 1018.5
20260901193006 16 181 0.0 3.2 0.00 0.03 0.03 81 1016.8
20260901192506 16 225 0.0 3.2 0.00 0.03 0.03 81 1016.8
20260901192454 16 234 3.2 4.8 0.00 0.00 0.00 82 1019.0
20260901192005 16 255 1.6 4.8 0.00 0.03 0.03 81 1016.8
20260901191953 16 231 3.2 4.8 0.00 0.00 0.00 81 1018.8
20260901191506 16 267 1.6 4.8 0.00 0.03 0.03 81 1016.7
20260901191453 16 240 3.2 4.8 0.00 0.00 0.00 81 1018.8
20260901191005 16 225 0.0 1.6 0.00 0.03 0.03 81 1016.7
20260901190453 16 226 3.2 4.8 0.00 0.00 0.00 81 1018.7
20260901190006 16 0 0.0 0.0 0.00 0.03 0.03 81 1016.7
20260901190001 16 224 3.2 4.8 0.00 0.00 0.00 81 1018.8
20260901185506 16 225 0.0 3.2 0.00 0.03 0.03 81 1016.8
20260901185455 16 229 3.2 4.8 0.00 0.00 0.00 81 1018.7
20260901185005 16 225 0.0 3.2 0.00 0.03 0.03 81 1016.6
20260901184505 16 225 0.0 3.2 0.00 0.03 0.03 80 1016.6
20260901184454 16 219 3.2 4.8 0.00 0.00 0.00 81 1018.6
20260901184005 16 225 0.0 3.2 0.00 0.03 0.03 80 1016.6
20260901183954 16 225 3.2 4.8 0.00 0.00 0.00 80 1018.6
20260901183453 16 228 3.2 3.2 0.00 0.00 0.00 80 1018.5
20260901183005 16 225 0.0 3.2 0.00 0.03 0.03 79 1016.6
20260901182954 16 231 3.2 3.2 0.00 0.00 0.00 78 1018.4
20260901182505 16 0 0.0 0.0 0.00 0.03 0.03 78 1016.5
20260901181954 16 212 1.6 3.2 0.00 0.00 0.00 77 1018.3
20260901181454 17 218 1.6 3.2 0.00 0.00 0.00 75 1018.3
20260901180506 17 0 0.0 0.0 0.00 0.03 0.03 74 1016.3
20260901180454 17 181 1.6 3.2 0.00 0.00 0.00 74 1018.3
20260901180006 17 0 0.0 0.0 0.00 0.03 0.03 74 1016.3
20260901180001 17 181 1.6 3.2 0.00 0.00 0.00 74 1018.1
20260901175505 17 0 0.0 0.0 0.00 0.03 0.03 74 1016.2
20260901175454 17 205 1.6 3.2 0.00 0.00 0.00 73 1018.0
20260901175005 17 234 1.6 6.4 0.00 0.03 0.03 73 1016.1
20260901174953 17 240 3.2 6.4 0.00 0.00 0.00 73 1018.1
20260901174505 17 232 3.2 6.4 0.00 0.03 0.03 72 1016.2
20260901174454 17 265 4.8 6.4 0.00 0.00 0.00 72 1018.0
20260901174007 17 243 4.8 6.4 0.00 0.03 0.03 72 1016.1
20260901173505 18 258 6.4 6.4 0.00 0.03 0.03 71 1016.1
20260901173453 18 263 6.4 6.4 0.00 0.00 0.00 71 1017.8
20260901173006 18 256 6.4 6.4 0.00 0.03 0.03 71 1016.0
20260901172953 18 268 6.4 6.4 0.00 0.00 0.00 70 1017.9
20260901172506 18 257 6.4 8.0 0.00 0.03 0.03 71 1016.2
20260901172454 18 260 8.0 8.0 0.00 0.00 0.00 70 1017.8
20260901172006 18 281 6.4 8.0 0.00 0.03 0.03 70 1016.0
20260901171953 18 262 8.0 8.0 0.00 0.00 0.00 70 1017.9
20260901171506 18 288 8.0 8.0 0.00 0.03 0.03 70 1016.0
20260901171454 18 264 8.0 9.7 0.00 0.00 0.00 69 1018.0
20260901171006 18 262 8.0 9.7 0.00 0.03 0.03 69 1016.0
20260901170954 18 272 8.0 9.7 0.00 0.00 0.00 69 1017.7
20260901170453 18 280 9.7 11.3 0.00 0.00 0.00 68 1017.5
20260901165959 18 274 11.3 16.1 0.00 0.00 0.00 68 1017.8
20260901165454 18 273 11.3 16.1 0.00 0.00 0.00 68 1017.7
20260901164954 18 264 9.7 12.9 0.00 0.00 0.00 68 1017.7
20260901164506 18 270 11.3 12.9 0.00 0.03 0.03 68 1015.7
20260901164006 18 290 12.9 19.3 0.00 0.03 0.03 67 1015.8
20260901163954 18 298 12.9 19.3 0.00 0.00 0.00 67 1017.6
20260901163505 18 270 14.5 19.3 0.00 0.03 0.03 66 1015.8
20260901163453 18 300 12.9 19.3 0.00 0.00 0.00 65 1017.7
20260901163005 19 263 14.5 17.7 0.00 0.03 0.03 65 1015.8
20260901162954 19 284 14.5 17.7 0.00 0.00 0.00 65 1017.6
20260901162505 19 268 16.1 24.1 0.00 0.03 0.03 65 1015.7
20260901162454 19 289 17.7 24.1 0.00 0.00 0.00 65 1017.6